Weather in Bolshoy Shantar

Russia / Khabarovsk Krai     54°51′42″N   137°29′47″E
temp.,
°C
wind,
m/s
gust,
m/s
humid.,
%
clouds,
%
prec.,
mm/h
press.,
hPa
HPBL,
m
27 february, sat
sat2701:00−19w46910 0.0 102764
04:00−18w513860 0.0 1026252
07:00−19wnw510870 0.0 1025186
10:00−19wnw411830 0.0 1025285
13:00−16w26770 0.0 1025358
16:00−17se118633 0.0 102287
19:00−17e3384100 0.0 102126
22:00−15e3583100 0.0 1019153
28 february, sun
sun2801:00−17ene4692100 0.3 1017219
04:00−19nne5696100 1.9 1014229
07:00−20nne4695100 0.9 1014296
10:00−20nne3588100 1.1 1014307
13:00−18n3584100 0.1 1015506
16:00−17nnw5686100 0.2 1015616
19:00−18nw4693100 0.1 1017162
22:00−18wnw3596100 0.2 1019122
1 march, mon
mon101:00−18nw71567100 0.0 1019444
04:00−20nw81565100 0.0 1020427
07:00−22nw7146780 0.0 1021298
10:00−22wnw7107578 0.0 1021386
13:00−20wnw10126878 0.0 1021793
16:00−20wnw10147070 0.0 1020890
19:00−22wnw1219800 0.0 1021574
22:00−22wnw1219780 0.0 1022544
2 march, tue
tue201:00−23wnw1017740 0.0 1022444
04:00−25wnw1017790 0.0 1022422
07:00−25wnw1018800 0.0 1023438
10:00−25wnw1117780 0.0 1023536
13:00−24wnw1114730 0.0 1023706
16:00−22w913700 0.0 1023678
19:00−24wnw611820 0.0 1024163
22:00−25wnw45890 0.0 102447
3 march, wed
wed301:00−27wnw45920 0.0 102459
04:00−27wnw47900 0.0 102399
07:00−28wnw47933 0.0 1022109
10:00−26w59871 0.0 1021287
13:00−23w46780 0.0 1019326
16:00−23ssw11805 0.0 1016122
19:00−22e1279100 0.0 101534
22:00−21e2278100 0.0 101423